GW5952 Weather Reports


time (UTC)temp
C
wind
direction
speed
KPH
gust
KPH
rain 1hr
cm
rain 24hr
cm
rain mn
cm
humidity
%
barometer
mb
20260905204826 37 207 1.6 1.6 0.00 0.00 0.00 42 1010.6
20260905204323 37 321 0.0 1.6 0.00 0.00 0.00 40 1010.5
20260905203821 37 245 4.8 6.4 0.00 0.00 0.00 40 1010.5
20260905203317 37 324 3.2 4.8 0.00 0.00 0.00 39 1010.7
20260905202813 37 285 4.8 6.4 0.00 0.00 0.00 41 1010.8
20260905202307 37 336 3.2 4.8 0.00 0.00 0.00 42 1010.7
20260905201803 37 316 0.0 0.0 0.00 0.00 0.00 43 1010.7
20260905201258 37 238 0.0 0.0 0.00 0.00 0.00 42 1010.8
20260905200753 37 212 0.0 0.0 0.00 0.00 0.00 40 1011.0
20260905200249 37 306 4.8 6.4 0.00 0.00 0.00 40 1011.0
20260905195746 37 9 4.8 6.4 0.00 0.00 0.00 40 1011.1
20260905195242 37 333 0.0 0.0 0.00 0.00 0.00 41 1011.2
20260905194737 37 337 0.0 0.0 0.00 0.00 0.00 41 1011.0
20260905194236 38 265 0.0 1.6 0.00 0.00 0.00 40 1011.2
20260905193736 37 326 3.2 3.2 0.00 0.00 0.00 40 1011.4
20260905193232 37 230 1.6 1.6 0.00 0.00 0.00 43 1011.5
20260905192727 36 325 3.2 3.2 0.00 0.00 0.00 44 1011.6
20260905192223 37 307 4.8 6.4 0.00 0.00 0.00 43 1011.7
20260905191722 37 294 0.0 1.6 0.00 0.00 0.00 42 1011.8
20260905191220 37 245 0.0 0.0 0.00 0.00 0.00 44 1011.7
20260905190719 37 236 1.6 1.6 0.00 0.00 0.00 45 1011.9
20260905190218 37 305 3.2 3.2 0.00 0.00 0.00 43 1011.7
20260905185718 37 321 4.8 4.8 0.00 0.00 0.00 44 1011.9
20260905185212 37 308 3.2 3.2 0.00 0.00 0.00 44 1012.0
20260905184707 36 48 1.6 3.2 0.00 0.00 0.00 47 1012.3
20260905184206 37 250 3.2 3.2 0.00 0.00 0.00 46 1012.1
20260905183706 38 234 1.6 1.6 0.00 0.00 0.00 44 1012.2
20260905183201 37 269 1.6 1.6 0.00 0.00 0.00 45 1012.2
20260905182700 37 216 0.0 0.0 0.00 0.00 0.00 45 1012.3
20260905182200 37 287 3.2 3.2 0.00 0.00 0.00 45 1012.4
20260905181656 37 201 1.6 1.6 0.00 0.00 0.00 44 1012.4
20260905181154 37 282 1.6 1.6 0.00 0.00 0.00 46 1012.4
20260905180649 36 240 1.6 1.6 0.00 0.00 0.00 47 1012.6
20260905180145 37 210 1.6 3.2 0.00 0.00 0.00 47 1012.8
20260905175643 37 237 0.0 0.0 0.00 0.00 0.00 47 1012.9
20260905175139 36 281 1.6 3.2 0.00 0.00 0.00 48 1012.9
20260905174635 36 257 1.6 3.2 0.00 0.00 0.00 48 1012.7
20260905174130 37 226 1.6 1.6 0.00 0.00 0.00 50 1012.8
20260905173626 36 242 0.0 1.6 0.00 0.00 0.00 47 1013.0
20260905173122 36 350 3.2 3.2 0.00 0.00 0.00 49 1012.9
20260905172620 36 273 1.6 3.2 0.00 0.00 0.00 49 1013.1
20260905172115 36 193 1.6 3.2 0.00 0.00 0.00 51 1013.3
20260905171612 36 187 1.6 3.2 0.00 0.00 0.00 50 1013.2
20260905171108 36 356 1.6 3.2 0.00 0.00 0.00 50 1013.1
20260905170604 36 132 1.6 1.6 0.00 0.00 0.00 49 1013.3
20260905170059 36 202 0.0 1.6 0.00 0.00 0.00 52 1013.3
20260905165554 36 355 0.0 0.0 0.00 0.00 0.00 51 1013.5
20260905165049 36 297 3.2 4.8 0.00 0.00 0.00 52 1013.4
20260905164544 36 216 1.6 1.6 0.00 0.00 0.00 53 1013.4
20260905164038 36 211 0.0 0.0 0.00 0.00 0.00 52 1013.7
20260905163534 36 203 1.6 1.6 0.00 0.00 0.00 52 1013.7
20260905163030 35 190 0.0 0.0 0.00 0.00 0.00 53 1013.9
20260905162526 35 240 1.6 3.2 0.00 0.00 0.00 54 1014.1
20260905162021 35 319 3.2 3.2 0.00 0.00 0.00 55 1014.2
20260905161520 35 338 3.2 3.2 0.00 0.00 0.00 53 1014.0
20260905161018 35 322 4.8 6.4 0.00 0.00 0.00 53 1014.3
20260905160517 35 321 0.0 3.2 0.00 0.00 0.00 55 1014.2
20260905160012 35 224 1.6 1.6 0.00 0.00 0.00 56 1014.1
20260905155511 35 227 0.0 1.6 0.00 0.00 0.00 56 1014.1
20260905155009 35 230 0.0 0.0 0.00 0.00 0.00 57 1013.9
20260905154505 35 321 0.0 0.0 0.00 0.00 0.00 56 1014.0
20260905154000 35 249 0.0 0.0 0.00 0.00 0.00 57 1014.1
20260905153457 35 157 0.0 0.0 0.00 0.00 0.00 59 1014.1
20260905152956 34 230 0.0 0.0 0.00 0.00 0.00 57 1014.1
20260905152456 33 231 0.0 0.0 0.00 0.00 0.00 59 1014.2
20260905151957 34 194 0.0 0.0 0.00 0.00 0.00 62 1014.1
20260905151452 34 202 0.0 0.0 0.00 0.00 0.00 59 1014.2
20260905150947 34 183 0.0 0.0 0.00 0.00 0.00 59 1014.1
20260905150442 33 182 1.6 1.6 0.00 0.00 0.00 59 1014.1
20260905145938 33 182 1.6 1.6 0.00 0.00 0.00 60 1014.1
20260905145433 33 185 1.6 1.6 0.00 0.00 0.00 63 1014.2
20260905144932 33 189 1.6 1.6 0.00 0.00 0.00 62 1014.2
20260905144429 32 168 1.6 3.2 0.00 0.00 0.00 63 1014.1
20260905143927 32 159 0.0 1.6 0.00 0.00 0.00 65 1014.0
20260905143427 32 188 3.2 3.2 0.00 0.00 0.00 68 1014.2
20260905142926 32 182 0.0 1.6 0.00 0.00 0.00 67 1014.3
20260905142425 32 165 0.0 1.6 0.00 0.00 0.00 64 1014.1
20260905141921 32 183 1.6 1.6 0.00 0.00 0.00 67 1014.1
20260905141416 31 179 0.0 0.0 0.00 0.00 0.00 69 1014.4
20260905140912 31 169 1.6 1.6 0.00 0.00 0.00 69 1014.3
20260905140407 31 165 0.0 1.6 0.00 0.00 0.00 69 1014.5
20260905135906 32 173 1.6 1.6 0.00 0.00 0.00 66 1014.4
20260905135402 32 83 0.0 1.6 0.00 0.00 0.00 65 1014.4
20260905134857 31 83 0.0 1.6 0.00 0.00 0.00 66 1014.4
20260905134355 30 123 0.0 0.0 0.00 0.00 0.00 68 1014.3
20260905133850 30 171 0.0 0.0 0.00 0.00 0.00 69 1014.3
20260905133346 30 170 0.0 0.0 0.00 0.00 0.00 70 1014.3
20260905132845 30 170 0.0 1.6 0.00 0.00 0.00 70 1014.4
20260905132340 29 170 0.0 0.0 0.00 0.00 0.00 73 1014.4
20260905131835 28 170 0.0 1.6 0.00 0.00 0.00 78 1014.4
20260905131330 28 170 0.0 0.0 0.00 0.00 0.00 79 1014.5
20260905130826 28 170 0.0 0.0 0.00 0.00 0.00 81 1014.5
20260905130324 28 170 0.0 1.6 0.00 0.00 0.00 82 1014.5
20260905125820 27 238 1.6 1.6 0.00 0.00 0.00 82 1014.5
20260905125315 27 170 0.0 0.0 0.00 0.00 0.00 84 1014.4
20260905124811 27 232 0.0 0.0 0.00 0.00 0.00 84 1014.5
20260905124307 27 232 1.6 1.6 0.00 0.00 0.00 85 1014.4
20260905123801 26 175 1.6 1.6 0.00 0.00 0.00 86 1014.4
20260905123259 26 175 1.6 1.6 0.00 0.00 0.00 86 1014.4
20260905122758 26 170 1.6 1.6 0.00 0.00 0.00 86 1014.4
20260905122257 25 185 0.0 1.6 0.00 0.00 0.00 89 1014.3
20260905121753 25 186 0.0 0.0 0.00 0.00 0.00 91 1014.4
20260905121250 25 186 0.0 0.0 0.00 0.00 0.00 92 1014.3
20260905120748 25 186 0.0 0.0 0.00 0.00 0.00 93 1014.2
20260905120247 24 186 0.0 0.0 0.00 0.00 0.00 93 1014.4
20260905115743 24 186 0.0 0.0 0.00 0.00 0.00 94 1014.1
20260905115242 24 186 0.0 0.0 0.00 0.00 0.00 94 1014.2
20260905114742 24 186 0.0 0.0 0.00 0.00 0.00 94 1014.2
20260905114241 24 186 0.0 0.0 0.00 0.00 0.00 94 1014.1
20260905113740 24 186 0.0 0.0 0.00 0.00 0.00 94 1013.8
20260905113236 24 186 0.0 0.0 0.00 0.00 0.00 94 1013.9
20260905112731 24 186 0.0 0.0 0.00 0.00 0.00 94 1013.6
20260905112226 24 186 0.0 0.0 0.00 0.00 0.00 94 1013.9
20260905111721 24 186 0.0 0.0 0.00 0.00 0.00 94 1013.7
20260905111221 24 186 0.0 0.0 0.00 0.00 0.00 94 1013.6
20260905110720 24 186 0.0 0.0 0.00 0.00 0.00 94 1013.6
20260905110214 24 186 0.0 0.0 0.00 0.00 0.00 93 1013.5
20260905105710 24 186 0.0 0.0 0.00 0.00 0.00 93 1013.5
20260905105208 24 186 0.0 0.0 0.00 0.00 0.00 93 1013.6
20260905104704 24 186 0.0 0.0 0.00 0.00 0.00 93 1013.5
20260905104200 25 186 0.0 0.0 0.00 0.00 0.00 93 1013.4
20260905103655 25 186 0.0 0.0 0.00 0.00 0.00 93 1013.4
20260905103150 25 186 0.0 0.0 0.00 0.00 0.00 93 1013.4
20260905102646 25 186 0.0 0.0 0.00 0.00 0.00 92 1013.4
20260905102143 25 186 0.0 0.0 0.00 0.00 0.00 92 1013.4
20260905101641 25 186 0.0 0.0 0.00 0.00 0.00 92 1013.3
20260905101139 25 186 0.0 0.0 0.00 0.00 0.00 92 1013.4
20260905100636 25 186 0.0 0.0 0.00 0.00 0.00 91 1013.4
20260905100131 25 186 0.0 0.0 0.00 0.00 0.00 91 1013.4
20260905095630 25 186 0.0 0.0 0.00 0.00 0.00 91 1013.5
20260905095126 25 186 0.0 0.0 0.00 0.00 0.00 90 1013.2
20260905094621 25 186 0.0 0.0 0.00 0.00 0.00 90 1013.2
20260905094120 25 186 0.0 0.0 0.00 0.00 0.00 90 1013.1
20260905093620 25 186 1.6 1.6 0.00 0.00 0.00 89 1013.1
20260905093117 25 186 0.0 0.0 0.00 0.00 0.00 90 1013.0
20260905092616 25 186 0.0 0.0 0.00 0.00 0.00 90 1013.0
20260905092112 25 186 0.0 0.0 0.00 0.00 0.00 90 1013.0
20260905091611 25 186 0.0 0.0 0.00 0.00 0.00 90 1013.0
20260905091106 25 186 0.0 0.0 0.00 0.00 0.00 90 1013.0
20260905090606 25 186 0.0 0.0 0.00 0.00 0.00 89 1012.9
20260905085600 25 186 0.0 0.0 0.00 0.00 0.00 88 1012.8
20260905085056 25 186 0.0 0.0 0.00 0.00 0.00 88 1012.8
20260905084555 25 186 0.0 0.0 0.00 0.00 0.00 89 1012.9
20260905084051 25 186 0.0 0.0 0.00 0.00 0.00 89 1012.9
20260905083551 25 186 0.0 0.0 0.00 0.00 0.00 89 1012.7
20260905083048 25 186 0.0 0.0 0.00 0.00 0.00 89 1012.7
20260905082542 25 186 0.0 0.0 0.00 0.00 0.00 88 1013.1
20260905082039 25 186 0.0 0.0 0.00 0.00 0.00 88 1013.0
20260905081538 25 186 0.0 0.0 0.00 0.00 0.00 88 1013.0
20260905081033 25 186 0.0 0.0 0.00 0.00 0.00 88 1013.2
20260905080532 26 186 0.0 0.0 0.00 0.00 0.00 88 1013.3
20260905080027 26 186 0.0 0.0 0.00 0.00 0.00 87 1013.2
20260905075520 26 186 0.0 0.0 0.00 0.00 0.00 87 1013.2
20260905075020 26 186 0.0 0.0 0.00 0.00 0.00 86 1013.2
20260905074515 26 186 0.0 0.0 0.00 0.00 0.00 86 1013.3
20260905074011 26 186 0.0 0.0 0.00 0.00 0.00 85 1013.3
20260905073506 26 186 0.0 0.0 0.00 0.00 0.00 86 1013.2
20260905073002 26 186 0.0 0.0 0.00 0.00 0.00 86 1013.3
20260905072501 26 186 0.0 0.0 0.00 0.00 0.00 85 1013.2
20260905071957 26 186 0.0 0.0 0.00 0.00 0.00 85 1013.3
20260905071454 26 186 0.0 0.0 0.00 0.00 0.00 84 1013.4
20260905070954 26 186 0.0 0.0 0.00 0.00 0.00 85 1013.4
20260905070450 26 186 0.0 0.0 0.00 0.00 0.00 84 1013.4
20260905065949 26 186 0.0 0.0 0.00 0.00 0.00 83 1013.4
20260905065448 26 186 0.0 0.0 0.00 0.00 0.00 84 1013.5
20260905064943 26 186 0.0 0.0 0.00 0.00 0.00 84 1013.2
20260905064443 26 186 0.0 0.0 0.00 0.00 0.00 84 1013.4
20260905063938 26 186 0.0 0.0 0.00 0.00 0.00 84 1013.5
20260905063433 26 186 0.0 0.0 0.00 0.00 0.00 84 1013.6
20260905062930 26 186 0.0 0.0 0.00 0.00 0.00 84 1013.4
20260905062429 27 186 0.0 0.0 0.00 0.00 0.00 83 1013.5
20260905061925 27 186 0.0 0.0 0.00 0.00 0.00 82 1013.6
20260905061424 27 186 0.0 0.0 0.00 0.00 0.00 82 1013.8
20260905060924 27 186 0.0 0.0 0.00 0.00 0.00 82 1013.7
20260905060420 27 186 0.0 0.0 0.00 0.00 0.00 82 1013.5
20260905055919 27 186 0.0 0.0 0.00 0.00 0.00 81 1013.4
20260905055415 27 186 0.0 0.0 0.00 0.00 0.00 80 1013.5
20260905054914 27 186 0.0 0.0 0.00 0.00 0.00 81 1013.6
20260905054410 27 186 0.0 0.0 0.00 0.00 0.00 81 1013.7
20260905053910 27 186 0.0 1.6 0.00 0.00 0.00 81 1013.8
20260905053405 27 186 0.0 0.0 0.00 0.00 0.00 82 1013.9
20260905052900 27 186 0.0 0.0 0.00 0.00 0.00 82 1013.8
20260905052400 27 186 0.0 0.0 0.00 0.00 0.00 82 1013.9
20260905051859 27 186 0.0 0.0 0.00 0.00 0.00 82 1013.8
20260905051355 27 186 0.0 0.0 0.00 0.00 0.00 82 1013.8
20260905050853 27 186 0.0 0.0 0.00 0.00 0.00 82 1013.9
20260905050348 27 186 0.0 0.0 0.00 0.00 0.00 82 1013.8
20260905045848 27 186 0.0 0.0 0.00 0.00 0.00 82 1013.6
20260905045343 27 186 0.0 0.0 0.00 0.00 0.00 81 1013.8
20260905044839 27 186 0.0 0.0 0.00 0.00 0.00 80 1013.7
20260905044334 27 186 0.0 0.0 0.00 0.00 0.00 80 1013.7
20260905043832 28 186 0.0 1.6 0.00 0.00 0.00 79 1013.7
20260905043327 28 186 0.0 0.0 0.00 0.00 0.00 77 1013.5
20260905042823 28 186 0.0 0.0 0.00 0.00 0.00 77 1013.5
20260905042322 28 186 0.0 0.0 0.00 0.00 0.00 78 1013.7
20260905041817 28 186 0.0 0.0 0.00 0.00 0.00 78 1013.6
20260905041314 28 186 0.0 0.0 0.00 0.00 0.00 79 1013.7
20260905040808 28 186 0.0 0.0 0.00 0.00 0.00 78 1013.6
20260905040307 28 186 0.0 0.0 0.00 0.00 0.00 77 1013.6
20260905035801 28 186 0.0 0.0 0.00 0.00 0.00 76 1013.9
20260905035257 28 186 0.0 0.0 0.00 0.00 0.00 76 1013.8
20260905034754 28 186 0.0 1.6 0.00 0.00 0.00 76 1013.8
20260905034254 28 187 0.0 0.0 0.00 0.00 0.00 75 1013.7
20260905033752 28 187 0.0 1.6 0.00 0.00 0.00 76 1013.8
20260905033248 29 187 0.0 0.0 0.00 0.00 0.00 76 1013.9
20260905032748 29 187 0.0 0.0 0.00 0.00 0.00 75 1013.5
20260905032243 29 187 0.0 0.0 0.00 0.00 0.00 74 1013.9
20260905031738 29 187 0.0 0.0 0.00 0.00 0.00 74 1013.8
20260905031234 29 187 0.0 0.0 0.00 0.00 0.00 74 1013.8
20260905030729 30 187 0.0 1.6 0.00 0.00 0.00 73 1014.0
20260905030224 30 187 0.0 0.0 0.00 0.00 0.00 73 1013.9
20260905025719 30 187 0.0 0.0 0.00 0.00 0.00 73 1013.8
20260905025214 30 185 0.0 0.0 0.00 0.00 0.00 71 1013.9
20260905024710 30 178 0.0 1.6 0.00 0.00 0.00 72 1013.8
20260905024206 30 178 0.0 0.0 0.00 0.00 0.00 71 1014.0
20260905023701 30 178 0.0 0.0 0.00 0.00 0.00 72 1013.6
20260905023200 30 178 0.0 0.0 0.00 0.00 0.00 72 1013.8
20260905022659 30 179 0.0 0.0 0.00 0.00 0.00 71 1013.8
20260905022155 30 179 0.0 0.0 0.00 0.00 0.00 69 1013.6
20260905021655 30 179 0.0 0.0 0.00 0.00 0.00 69 1013.8
20260905021150 31 179 0.0 1.6 0.00 0.00 0.00 68 1013.6
20260905020645 31 175 0.0 0.0 0.00 0.00 0.00 68 1013.7
20260905020140 31 175 0.0 0.0 0.00 0.00 0.00 68 1013.5
20260905015638 31 175 0.0 0.0 0.00 0.00 0.00 67 1013.4
20260905015133 31 175 0.0 0.0 0.00 0.00 0.00 67 1013.6
20260905014626 31 174 0.0 0.0 0.00 0.00 0.00 66 1013.4
20260905014122 31 182 0.0 1.6 0.00 0.00 0.00 66 1013.5
20260905013619 31 182 0.0 0.0 0.00 0.00 0.00 66 1013.3
20260905013115 31 191 3.2 4.8 0.00 0.00 0.00 66 1013.2
20260905012614 31 176 1.6 1.6 0.00 0.00 0.00 65 1013.2
20260905012111 31 176 1.6 1.6 0.00 0.00 0.00 65 1013.2
20260905011607 31 191 0.0 0.0 0.00 0.00 0.00 65 1013.2
20260905011103 31 174 0.0 1.6 0.00 0.00 0.00 66 1013.2
20260905010602 31 197 0.0 0.0 0.00 0.00 0.00 65 1013.1
20260905010059 31 197 0.0 0.0 0.00 0.00 0.00 66 1013.1
20260905005554 31 174 0.0 1.6 0.00 0.00 0.00 65 1013.1
20260905005050 31 174 0.0 0.0 0.00 0.00 0.00 65 1012.9
20260905004549 31 174 0.0 0.0 0.00 0.00 0.00 65 1013.1
20260905004045 31 174 0.0 0.0 0.00 0.00 0.00 65 1013.0
20260905003541 31 174 0.0 0.0 0.00 0.00 0.00 66 1013.0
20260905003036 31 174 0.0 0.0 0.00 0.00 0.00 64 1013.0
20260905002531 31 174 0.0 0.0 0.00 0.00 0.00 64 1013.1
20260905002026 31 174 0.0 0.0 0.00 0.00 0.00 64 1012.9
20260905001521 31 174 0.0 0.0 0.00 0.00 0.00 64 1013.1
20260905001020 32 174 0.0 0.0 0.00 0.00 0.00 64 1013.0
20260905000516 32 174 0.0 0.0 0.00 0.00 0.00 63 1012.9
20260905000012 32 174 0.0 0.0 0.00 0.00 0.00 62 1013.0
20260904235507 32 174 0.0 0.0 0.00 0.00 0.00 63 1013.0
20260904235006 32 174 0.0 0.0 0.00 0.00 0.00 62 1013.0
20260904234506 33 174 0.0 0.0 0.00 0.00 0.00 60 1012.9
20260904234002 33 174 0.0 0.0 0.00 0.00 0.00 58 1013.0
20260904233457 33 174 0.0 0.0 0.00 0.00 0.00 58 1012.8
20260904232953 33 174 0.0 0.0 0.00 0.00 0.00 57 1012.9
20260904232450 33 174 0.0 0.0 0.00 0.00 0.00 58 1012.8
20260904231946 34 159 0.0 0.0 0.00 0.00 0.00 55 1012.6
20260904231441 34 159 0.0 0.0 0.00 0.00 0.00 54 1012.6
20260904230936 35 159 0.0 0.0 0.00 0.00 0.00 54 1012.6
20260904230435 35 159 0.0 0.0 0.00 0.00 0.00 51 1012.5
20260904225931 35 159 0.0 0.0 0.00 0.00 0.00 51 1012.7
20260904225429 35 159 0.0 0.0 0.00 0.00 0.00 51 1012.5
20260904224928 35 159 0.0 0.0 0.00 0.00 0.00 53 1012.6
20260904224425 35 159 0.0 0.0 0.00 0.00 0.00 50 1012.6
20260904223924 36 159 0.0 0.0 0.00 0.00 0.00 49 1012.5
20260904223423 36 159 0.0 0.0 0.00 0.00 0.00 49 1012.5
20260904222919 36 158 0.0 0.0 0.00 0.00 0.00 45 1012.6
20260904222414 36 146 0.0 1.6 0.00 0.00 0.00 46 1012.4
20260904221914 36 199 0.0 0.0 0.00 0.00 0.00 46 1012.5
20260904221409 36 191 3.2 3.2 0.00 0.00 0.00 45 1012.6
20260904220904 36 189 0.0 0.0 0.00 0.00 0.00 45 1012.7
20260904220403 36 247 0.0 0.0 0.00 0.00 0.00 46 1012.7
20260904215859 36 84 0.0 0.0 0.00 0.00 0.00 45 1012.7
20260904215354 36 281 0.0 0.0 0.00 0.00 0.00 46 1012.6
20260904214850 36 281 0.0 0.0 0.00 0.00 0.00 46 1012.6
20260904214345 36 282 0.0 0.0 0.00 0.00 0.00 48 1012.7
20260904213844 35 179 0.0 0.0 0.00 0.00 0.00 49 1012.9
20260904213339 35 170 0.0 0.0 0.00 0.00 0.00 55 1012.7
20260904212835 35 170 0.0 0.0 0.00 0.00 0.00 53 1013.0
20260904212335 36 170 0.0 0.0 0.00 0.00 0.00 49 1013.0
20260904211830 36 170 0.0 0.0 0.00 0.00 0.00 48 1013.0
20260904211325 36 299 0.0 0.0 0.00 0.00 0.00 50 1013.2
20260904210820 36 297 0.0 1.6 0.00 0.00 0.00 47 1013.3
20260904210320 36 174 0.0 0.0 0.00 0.00 0.00 48 1013.1
20260904205816 36 290 1.6 1.6 0.00 0.00 0.00 47 1013.6
20260904205311 36 283 1.6 1.6 0.00 0.00 0.00 46 1013.6